Regional Weather Roundup
Issued by NWS Goodland, KS

Home | Current Version | Previous Version | Text Only | Print | Product List | Glossary On
Versions: 1 2 3 4 5 6 7 8 9 10 11 12 13 14 15 16 17 18 19 20 21 22 23 24 25 26 27 28 29 30 31 32 33 34 35 36 37 38 39 40 41 42 43 44 45 46 47 48 49 50
000
ASUS43 KGLD 210459
RWRGLD

GOODLAND FORECAST AREA HOURLY WEATHER ROUNDUP
NATIONAL WEATHER SERVICE GOODLAND KS
1100 PM MDT THU JUL 20 2017

...OFFICIAL OBSERVATIONS...

CITY           SKY/WX    TMP DP  RH WIND       PRES   REMARKS
GOODLAND KS    CLEAR     78  65  63 S12       29.97S
HILL CITY KS   CLEAR     84  59  42 S6        29.90R
IMPERIAL NEB   CLOUDY    76  67  73 CALM      29.92S
MCCOOK NEB     CLEAR     84  61  45 S9        29.88S
AKRON CO       CLOUDY    80  54  40 SW15      30.05F
BURLINGTON CO  PTCLDY    75  65  70 SW6       30.02S
LIMON CO       CLOUDY    69  58  67 W13       30.14R
$$

...UNOFFICIAL OBSERVATIONS...

CITY           SKY/WX    TMP DP  RH WIND       PRES   REMARKS
LENORA KS        N/A     81  32  17 MISG        N/A
NORTON KS      CLEAR     82  52  34 SE9       29.89R
SHARON SPRINGS   N/A     75  60  60 S10         N/A
TRENTON NEB      N/A     83  32  16 S7          N/A
KIT CARSON CO    N/A     79  62  56 CALM        N/A
YUMA CO        FAIR      73  59  60 SW7       30.02S
$$




USA.gov is the U.S. government's official web portal to all federal, state and local government web resources and services.